SCP
0 0 0 0 0 0 0 0 0 0 0 0 0 0 0 0 0 0 0 0 0 0 0 0 0 0 0 0 0 0 0 0 0 0 0 0 0 0 0 0 0 0 0 0
0 0 0 0 0 0 0 0 0 0 0 0 0 0 0 0 0 0 0 0 0 0 0 0 0 0 0 0 0 0 0 0 0 0 0 0 0 0 0 0 0 0 0 0
0 0 0 0 0 0 0 0 0 0 0 0 0 0 0 0 0 0 0 0 0 0 0 0 0 0 0 0 0 0 0 0 0 0 0 0 0 0 0 0 0 0 0 0
0 0 0 0 0 0 0 0 0 0 0 0 0 0 0 0 0 0 0 0 0 0 0 0 0 0 0 0 0 0 0 0 0 0 0 0 0 0 0 0 0 0 0 0
0 0 0 0 0 0 0 0 0 0 0 0 0 0 0 0 0 0 0 0 0 0 0 0 0 0 0 0 0 0 0 0 0 0 0 0 0 0 0 0 0 0 0 0
0 0 0 0 0 0 0 0 0 0 0 0 0 0 0 0 0 0 0 0 0 0 0 0 0 0 0 0 0 0 0 0 1 0 0 0 0 0 0 0 0 0 0 0
0 0 0 0 0 0 0 0 0 0 0 0 0 0 0 0 0 0 0 0 0 0 0 0 0 0 0 0 0 0 0 1 1 1 0 0 0 0 0 0 0 0 0 0
0 0 0 0 0 0 0 0 0 0 0 0 0 0 0 0 0 0 0 0 0 0 0 0 0 0 0 0 0 0 1 1 1 0 0 0 0 0 0 0 0 0 0 0
0 0 0 0 0 0 0 0 0 0 0 0 0 0 0 0 0 0 0 0 0 0 0 0 0 0 0 0 0 0 1 1 1 0 0 0 0 0 0 0 0 0 0 0
0 0 0 0 0 0 0 0 0 0 0 0 0 0 0 0 0 0 0 0 0 0 0 0 0 0 0 0 0 0 0 0 0 0 0 0 0 0 0 0 0 0 0 0
0 0 0 0 0 0 0 0 0 0 0 0 0 0 0 0 0 0 0 0 0 0 0 0 0 0 0 0 0 0 0 0 0 0 0 0 0 0 0 0 0 0 0 0
0 0 0 0 0 0 0 0 0 0 0 0 0 0 0 0 0 0 0 0 0 0 0 0 0 0 0 0 0 0 0 0 0 0 0 0 0 0 0 0 0 0 0 0
0 0 0 0 0 0 0 0 0 0 0 0 0 0 0 0 0 0 0 0 0 0 0 0 0 0 0 0 0 0 0 0 0 0 0 0 0 0 0 0 0 0 0 0
0 0 0 0 0 0 0 0 0 0 0 0 0 0 0 0 0 0 0 1 1 1 0 0 0 1 1 1 1 0 0 0 0 0 0 0 0 0 0 0 0 0 0 0
0 0 0 0 0 0 0 0 0 0 0 0 0 0 0 0 0 0 1 1 1 1 1 1 1 1 1 1 1 1 1 1 1 1 1 1 1 0 0 1 1 1 0 0
0 0 0 0 0 0 0 0 0 0 0 0 0 0 0 0 0 1 1 1 1 1 1 1 1 1 1 1 1 1 1 1 1 1 1 1 1 1 1 1 1 1 0 0
0 0 0 0 0 0 0 0 0 0 0 0 0 0 0 0 0 1 1 1 1 1 1 1 1 1 1 1 1 1 1 1 1 1 1 1 1 1 1 1 1 1 0 0
0 0 0 0 0 0 0 0 0 0 0 0 0 0 0 0 0 1 1 1 1 1 1 1 1 1 1 1 1 1 1 1 1 1 1 1 1 1 1 1 1 1 0 0
0 0 0 0 0 0 0 0 0 0 0 0 0 0 0 0 0 0 1 1 1 1 1 1 1 1 1 1 1 1 1 1 1 1 1 1 1 1 1 1 1 1 1 1
0 0 0 0 0 0 0 0 0 0 0 0 0 0 0 0 0 1 1 1 1 1 1 1 1 1 1 1 2 2 2 1 1 1 1 1 1 1 1 1 1 1 1 1
0 0 0 0 0 0 0 0 0 0 0 0 0 1 0 1 1 1 1 1 1 1 1 1 2 2 2 2 2 2 2 2 2 1 1 2 1 1 1 1 1 1 1 1
0 0 0 0 0 0 0 0 0 0 1 1 1 1 1 1 1 1 1 1 1 1 1 2 2 2 2 2 2 2 2 2 2 2 1 1 1 1 1 1 1 1 1 1
0 0 0 0 0 0 1 1 1 1 1 1 1 1 1 1 1 1 1 1 1 1 1 2 2 2 2 2 2 2 2 2 2 2 1 1 1 1 1 1 1 1 1 1
0 0 0 1 1 1 1 1 1 1 1 1 1 1 1 1 1 1 1 1 1 1 2 2 2 2 2 2 2 2 2 1 1 1 1 1 1 1 1 1 1 1 1 1
1 1 1 1 1 1 1 1 1 1 1 1 1 1 1 1 1 1 1 1 1 2 2 2 2 2 2 2 2 2 1 1 1 1 1 1 1 1 1 1 1 1 1 1
1 1 1 1 1 1 1 1 1 1 1 1 1 1 1 1 1 1 1 1 1 2 2 2 2 2 2 2 2 1 1 1 1 1 1 1 1 1 1 1 1 1 1 0
Wind_Speed
7 10 10 8 7 3 4 4 3 4 5 7 6 6 9 12 12 12 12 12 11 11 10 9 9 9 8 8 8 7 6 5 4 3 2 2 1 1 1 1 2 1 1 1
10 12 7 5 5 6 7 7 5 5 5 5 5 6 7 11 13 12 12 12 12 11 10 10 10 9 9 9 9 8 8 7 6 3 2 1 1 1 1 1 1 1 1 1
14 7 7 8 9 9 9 7 4 4 6 6 5 8 9 10 12 12 12 12 12 11 12 11 11 11 10 10 10 8 8 7 6 5 4 3 2 2 2 1 1 1 1 1
11 6 9 11 11 11 9 5 5 6 7 5 6 4 7 9 11 13 14 13 13 12 12 12 12 11 11 10 9 9 8 7 7 7 5 4 2 2 1 0 1 1 1 1
10 10 11 12 10 9 4 4 6 7 8 6 6 8 4 8 9 12 13 14 13 13 12 12 12 11 11 10 9 9 8 8 7 6 5 5 3 2 2 1 1 1 1 1
7 7 9 9 6 6 8 8 6 7 8 9 5 7 3 4 6 7 11 12 13 12 12 12 11 11 10 10 9 9 9 8 8 7 6 5 3 2 1 1 1 1 1 0
11 10 8 8 10 10 11 10 8 9 9 7 4 7 3 2 3 4 7 10 12 12 12 12 12 12 11 11 10 9 10 9 8 8 6 6 5 4 3 2 1 1 0 0
15 14 13 11 12 10 14 14 10 8 7 5 6 7 2 3 2 4 5 8 10 12 12 12 12 12 11 11 11 10 10 9 9 8 7 6 5 4 2 1 1 0 1 2
11 11 10 9 8 10 14 14 11 10 8 8 6 5 5 4 5 6 6 8 9 11 12 12 12 12 11 11 11 11 10 10 9 8 7 6 5 3 2 2 2 0 0 0
7 9 10 9 8 5 9 11 8 11 9 10 8 8 5 6 6 7 8 8 9 10 11 12 11 11 10 10 10 10 10 10 9 9 7 6 5 5 3 2 1 0 0 1
9 9 10 12 13 13 10 11 10 10 10 10 8 5 2 3 5 7 8 8 8 10 11 11 11 11 10 10 10 11 10 9 9 8 7 6 6 5 4 3 2 2 1 1
10 9 9 11 7 6 12 13 13 11 9 10 10 3 5 2 4 5 6 7 7 8 9 10 11 11 11 11 10 11 10 10 9 8 8 7 6 5 5 4 3 3 2 2
8 9 10 11 11 9 12 12 13 13 10 10 12 6 6 4 3 4 5 6 7 7 9 10 11 11 10 10 10 10 10 10 10 9 9 8 7 6 5 5 4 4 3 3
7 10 12 12 10 12 14 13 14 14 11 12 13 9 5 4 3 3 4 5 7 8 9 10 10 10 9 9 9 9 9 10 10 9 9 8 7 7 6 5 5 4 4 3
7 11 11 10 6 9 12 14 15 16 15 13 11 10 7 4 3 3 4 5 6 8 9 10 10 10 10 9 9 9 9 9 10 9 9 8 8 7 7 6 5 4 4 4
5 7 10 11 10 10 12 14 15 16 15 15 13 10 3 1 2 3 4 5 7 8 9 10 10 10 10 10 10 10 9 9 10 10 9 8 8 8 7 6 6 5 4 4
7 7 9 11 11 11 15 14 15 14 13 14 13 8 3 3 3 4 4 5 6 7 9 9 10 10 10 10 10 10 10 10 9 9 9 9 9 8 7 7 6 6 5 5
7 8 7 9 10 15 8 4 9 11 10 9 8 5 4 4 4 3 3 4 4 6 7 8 9 9 10 10 10 10 10 11 10 10 10 9 9 8 8 7 6 6 5 4
8 8 8 9 13 12 6 5 7 9 8 5 7 5 3 3 4 4 3 2 3 3 5 6 7 9 10 10 10 10 10 10 10 10 10 9 9 9 8 8 7 6 5 4
8 8 9 10 12 12 6 4 3 7 8 2 4 4 4 6 7 3 3 2 2 3 4 5 7 8 9 9 10 10 9 9 9 9 9 9 8 8 8 8 7 6 5 5
11 10 12 12 11 7 2 2 5 10 3 1 1 2 4 4 3 2 2 2 3 4 4 5 6 7 7 8 9 9 9 9 8 8 8 8 8 8 8 7 6 6 5 5
10 10 10 10 12 6 3 4 4 1 2 1 1 1 1 0 1 2 2 3 4 4 5 5 5 6 6 7 8 8 7 8 8 9 9 8 8 7 7 7 6 6 6 6
6 4 4 4 2 4 2 1 2 1 1 1 1 0 0 1 2 2 2 3 4 4 4 4 5 6 5 6 7 8 7 7 8 9 9 8 8 7 7 8 8 7 6 5
5 4 4 3 3 2 1 1 1 2 2 2 1 1 1 1 2 2 2 3 3 3 3 4 5 6 5 6 6 6 6 7 8 9 8 8 7 7 7 6 6 6 6 5
3 5 5 5 4 2 1 1 2 1 1 0 1 1 1 2 2 2 2 3 3 3 3 3 4 5 5 5 5 6 7 7 8 8 7 7 7 6 6 5 3 4 3 2
5 5 6 4 3 3 1 2 2 1 0 0 1 1 1 2 2 2 2 2 2 2 2 3 3 4 4 5 5 5 6 7 7 7 7 6 6 6 6 5 4 3 1 3
Wind_Direction
195 216 211 203 224 260 226 227 189 142 157 205 208 192 174 180 194 193 192 194 199 202 197 194 197 200 196 191 191 192 196 189 199 203 216 200 183 184 150 122 70 27 10 34
202 218 206 193 206 229 228 224 187 147 165 222 213 212 188 189 200 202 200 200 202 201 197 196 198 198 197 193 192 191 194 195 204 195 212 217 225 198 126 46 80 41 27 351
221 193 173 194 197 212 221 230 204 165 168 205 235 208 195 194 205 207 212 211 209 205 201 198 199 199 195 193 193 194 193 194 202 198 200 183 176 200 165 159 135 55 12 9
222 182 190 201 204 218 213 209 202 183 206 194 232 255 173 188 200 209 212 213 212 207 204 202 198 197 195 192 188 190 189 192 192 197 204 208 210 196 144 173 103 111 32 357
199 191 197 207 204 218 197 162 195 208 232 244 213 264 152 174 205 207 208 210 211 206 202 200 199 196 196 191 185 182 185 187 189 196 191 204 207 187 168 167 116 297 72 1
197 190 214 213 190 189 149 156 175 216 235 241 230 257 236 172 206 197 196 203 205 201 197 197 195 190 191 188 183 178 177 182 184 187 188 196 193 194 188 194 177 211 132 32
198 193 193 197 175 175 195 198 206 213 221 232 178 245 266 128 184 204 193 194 196 197 193 191 191 188 187 186 182 177 174 179 181 181 183 185 188 192 199 223 188 282 322 28
200 195 189 199 207 195 210 220 228 236 235 211 182 236 224 121 169 195 193 185 188 190 190 190 189 188 186 183 179 178 177 178 178 177 179 183 191 200 189 200 272 281 346 15
210 199 173 193 217 224 208 224 241 249 251 254 221 223 221 174 181 179 177 176 180 183 185 188 187 187 185 181 179 178 176 176 176 174 174 178 185 187 175 180 212 206 336 23
230 209 181 176 190 217 243 222 223 239 241 244 234 231 219 181 180 171 176 178 177 179 180 183 183 183 181 178 175 176 176 176 174 174 179 171 174 175 178 180 123 76 35 20
230 218 187 191 207 197 195 209 222 234 245 249 244 221 126 185 181 176 175 173 174 178 179 178 178 177 173 173 172 173 173 174 174 173 171 170 168 168 168 163 155 142 108 83
219 229 208 201 195 240 218 214 211 222 225 241 261 223 115 153 172 176 175 168 168 171 172 174 172 170 171 172 173 173 173 175 173 168 166 166 163 161 161 150 142 134 121 108
201 221 206 196 192 201 218 218 223 232 231 233 243 223 137 160 175 173 176 167 162 165 168 169 169 170 173 173 172 170 174 173 169 164 163 159 160 157 155 145 140 134 128 116
229 227 232 224 207 194 205 210 220 226 229 231 239 248 196 198 197 181 173 172 171 167 168 171 170 171 169 168 167 167 170 167 164 162 161 159 161 157 151 147 144 140 135 127
230 225 231 245 239 220 215 213 214 227 238 246 242 245 241 229 214 195 182 175 175 171 170 173 174 167 163 160 159 162 162 162 161 161 161 158 156 153 151 150 146 142 140 132
231 234 222 226 220 225 230 225 222 227 235 242 249 248 265 206 197 192 190 185 182 180 176 173 171 166 164 162 160 159 159 160 161 159 156 153 155 156 155 150 145 141 136 129
211 220 222 222 210 221 227 222 223 226 231 239 242 242 223 221 217 207 199 196 191 186 180 175 172 169 166 165 160 160 159 159 159 157 156 157 158 155 153 149 144 144 143 141
225 226 227 223 207 226 224 212 228 228 231 239 248 248 236 238 230 211 187 192 192 187 181 176 168 163 162 161 161 159 157 158 160 161 160 160 160 155 151 149 146 146 145 145
220 222 229 225 221 223 206 201 218 225 225 236 246 241 225 227 219 192 153 174 183 183 174 172 169 163 157 158 158 156 157 160 164 165 164 164 163 156 154 153 151 151 150 149
195 220 233 224 230 227 202 166 218 228 220 219 253 245 220 214 231 185 107 110 133 145 155 162 162 157 155 155 154 158 160 164 169 168 167 164 162 160 157 154 155 154 155 157
187 201 223 228 229 225 116 159 203 219 196 69 257 244 229 235 296 64 102 114 124 131 144 149 149 148 151 155 156 157 159 165 167 164 163 160 159 158 154 151 153 155 160 156
204 201 209 222 227 210 113 190 216 15 35 17 324 267 254 70 83 110 108 123 132 134 137 141 142 141 147 157 159 154 161 164 162 160 159 155 157 160 152 152 155 157 159 162
228 243 224 233 229 70 65 43 30 357 292 311 294 284 182 157 126 122 129 129 131 134 134 138 140 142 149 158 163 157 155 160 158 156 156 154 156 159 158 163 162 167 176 184
199 237 231 216 181 149 90 17 350 316 295 290 267 218 202 165 141 144 140 132 134 136 138 142 146 149 151 157 162 157 154 160 157 156 157 158 162 167 168 179 179 183 184 188
226 211 216 217 200 197 220 317 340 345 335 284 159 152 161 154 151 145 139 142 147 144 148 154 158 155 153 155 157 154 153 161 160 160 163 166 169 170 173 179 179 194 183 191
239 243 237 219 206 225 196 308 330 330 296 185 158 140 142 157 153 140 133 129 138 148 158 162 160 159 157 155 156 155 159 166 165 168 173 175 175 171 176 170 163 76 95 116